User: anonymous   Login
Location: Espelette
(43.3402°N, 1.4474°W)
Time: 01:49:00
(UTC+00:00)
Language:

Cosmos 1697 Rocket - Orbit

View from above orbital plane
View from above orbital plane
View from above satellite
View from above satellite

Ground track
Ground track

The orbit data is extracted from the following two-line orbital elements,

1 16182U 85097B   25194.54136765 -.00000143  00000-0 -47727-4 0  9996
2 16182  71.0033 284.0093 0009752 263.1524 189.1739 14.16554449 53364
Epoch (UTC): 13 July 2025 12:59:34
Eccentricity: 0.0009752
inclination: 71.0033°
perigee height: 830 km
apogee height: 844 km
right ascension of ascending node: 284.0093°
argument of perigee: 263.1524°
revolutions per day: 14.16554449
mean anomaly at epoch: 189.1739°
orbit number at epoch: 5336

The dashed part of the orbit path shows where the satellite is in the earth's shadow,  

DLR